User: anonymous   Login
Location: Darlington Observatory
(36.4817°N, 105.8156°W)
Time: 02:45:24
(UTC-07:00)
Language:

MOS 1 - Orbit

View from above orbital plane
View from above orbital plane
View from above satellite
View from above satellite

Ground track
Ground track

The orbit data is extracted from the following two-line orbital elements,

1 17527U 87018A   17019.06440140 -.00000240  00000-0 -12596-3 0  9997
2 17527  99.2706  30.7518 0008464 348.0531  80.1287 14.02468148528556
Epoch (UTC): 19 January 2017 01:32:44
Eccentricity: 0.0008464
inclination: 99.2706°
perigee height: 879 km
apogee height: 891 km
right ascension of ascending node: 30.7518°
argument of perigee: 348.0531°
revolutions per day: 14.02468148
mean anomaly at epoch: 80.1287°
orbit number at epoch: 52855

The dashed part of the orbit path shows where the satellite is in the earth's shadow,  

DLR